Location: Sternwarte Stuttgart
(48.7670°N, 9.1830°E)
Time: 15:14:50
(UTC+02:00)

Cosmos 2219 - Pass Details

Date: 24 January 2019
Orbit: 834 x 860 km, 71.1° (Epoch: 14 October)

Event Time Altitude Azimuth Distance (km) Brightness Sun altitude
Exits shadow 04:17:15 18° 19° (NNE) 1,979 5.3 -36.9°
Drops below altitude 10° 04:22:46 10° 85° (E) 2,474 6.4 -36.0°
Enters shadow 05:33:37 -49° 322° (NW) 10,709 8.8 -24.4°
Maximum altitude 06:03:48 80° 61° (ENE) 867 3.3 -19.5°
